Location: Sternwarte ZA, Rosenfeld-Brittheim
(48.2889°N, 8.6789°E)
Time: 21:29:56
(UTC+02:00)

ISS - Pass Details

Date: 26 May 2017
Orbit: 402 x 409 km, 51.6° (Epoch: 25 May)

Event Time Altitude Azimuth Distance (km) Brightness Sun altitude
Rises 03:24:59 0° 292° (WNW) 2,331 -0.1 -15.3°
Reaches altitude 10° 03:27:05 10° 287° (WNW) 1,467 -1.1 -15.2°
Maximum altitude 03:30:19 55° 209° (SSW) 492 -3.8 -14.9°
Drops below altitude 10° 03:33:31 10° 131° (SE) 1,456 -1.1 -14.6°
Sets 03:35:36 0° 126° (SE) 2,312 0.0 -14.4°
